Tracking 18856 objects as of 12-Dec-2017
HD Live streaming from Space Station
objects crossing your sky now

COSMOS 2251 DEB

Track COSMOS 2251 DEB now!
10-day predictions


NORAD ID: 33899
Int'l Code: 1993-036DC
Perigee: 690.8 km
Apogee: 801.2 km
Inclination: 74.1 °
Period: 99.6 minutes
Semi major axis: 7116 km
RCS: 0.032 m2 (small)
Launch date: June 16, 1993
Source: Commonwealth of Independent States (former USSR) (CIS)
Launch site: PLESETSK MISSILE AND SPACE COMPLEX (PKMTR)

Note: This is SATELLITE DEBRIS
aabbcc
Your satellite tracking list
Your tracking list is empty




NASA's NSSDC Master Catalog

Two Line Element Set (TLE):
1 33899U 93036DC  17345.96441631 +.00000291 +00000-0 +86598-4 0  9999
2 33899 074.0564 163.3550 0077517 251.0101 263.2701 14.45965314464906
Source of the keplerian elements: AFSPC